Location: Glendale
(37.4556°N, 88.6714°W)
Time: 08:59:24
(UTC+00:00)

Cosmos 614 Rocket - Pass Details

Date: 08 December 2019
Orbit: 733 x 763 km, 74.1° (Epoch: 19 January)

Event Time Altitude Azimuth Distance (km) Brightness Sun altitude
Rises 00:29:54 0° 195° (SSW) 3,170 7.6 -21.9°
Reaches altitude 10° 00:32:15 10° 194° (SSW) 2,246 6.7 -22.4°
Maximum altitude 00:37:21 84° 107° (ESE) 747 3.8 -23.3°
Enters shadow 00:38:40 51° 24° (NNE) 928 4.1 -23.6°
